sat.trackr.live / text

‹ back to catalog

STARLINK-36690

NORAD 67913 · 2026-036K

PAYLOAD ACTIVE UNKNOWN

§ Identity

Operator
Country
US
Launch date
2026-02-22
Launch site
AFETR
Launch vehicle
Mass (kg)
RCS (m²)

Purposes: comms

External: N2YO · Heavens-Above · Gunter

§ Orbital elements

Epoch: 2026-05-25T03:08:52.135872Z

Period
94.27 min
Inclination
43.0031°
Eccentricity
0.0001471
Mean motion
15.27575296 rev/d
Perigee alt
482.1 km
Apogee alt
484.1 km
Semi-major
6,861.2 km
B*
4.5063e-4
RAAN
173.4836°
Arg perigee
271.0674°
Mean anomaly
89.0010°
Rev number
1,541

§ Raw data

STARLINK-366901 67913U 26036K   26145.13115898  .00012157  00000+0  45063-3 0  99932 67913  43.0031 173.4836 0001471 271.0674  89.0010 15.27575296 15419

JSON: /api/v1/satellites/67913 · /tle

For live sub-satellite position, see the globe view (requires WebGL).

§ Visibility from observer

Set your observer location to see the next 7 days of passes ≥ 10°. The values pass through the URL so the page stays shareable.

No JS? Fill the form by hand. The geolocation button needs JavaScript.